Location: Bismarck
(46.7731°N, 100.8200°W)
Time: 11:31:41
(UTC-05:00)

ISS - All Passes

Search period start: 28 May 2017 00:00
Search period end: 07 June 2017 00:00
Orbit: 402 x 408 km, 51.6° (Epoch: 29 May)

Date Brightness Start Highest point End Pass type
(mag) Time Alt. Az. Time Alt. Az. Time Alt. Az.
28 May - 00:50:53 10° WNW 00:53:58 34° N 00:57:01 10° ENE visible
28 May - 02:27:28 10° WNW 02:30:46 78° NNE 02:34:03 10° ESE visible
28 May - 04:04:30 10° W 04:06:57 19° SW 04:09:23 10° S visible
28 May - 20:45:45 10° SSW 20:48:35 27° SE 20:51:26 10° E daylight
28 May - 22:21:38 10° WSW 22:24:54 61° NNW 22:28:11 10° ENE visible
28 May - 23:58:44 10° WNW 00:01:47 33° N 00:04:49 10° ENE visible
29 May - 01:35:27 10° WNW 01:38:41 54° NNE 01:41:56 10° E visible
29 May - 03:12:06 10° WNW 03:15:06 32° SW 03:18:04 10° SSE visible
29 May - 19:54:36 10° S 19:56:44 16° SE 19:58:52 10° E daylight
29 May - 21:29:32 10° WSW 21:32:50 89° S 21:36:09 10° ENE daylight
29 May - 23:06:31 10° WNW 23:09:36 35° N 23:12:41 10° ENE visible
30 May - 00:43:24 10° WNW 00:46:33 41° NNE 00:49:42 10° E visible
30 May - 02:19:55 10° WNW 02:23:09 55° SSW 02:26:22 10° SE visible
30 May - 20:37:35 10° SW 20:40:49 55° SSE 20:44:04 10° ENE daylight
30 May - 22:14:15 10° W 22:17:25 41° NNW 22:20:35 10° ENE visible
30 May - 23:51:18 10° WNW 23:54:22 35° N 23:57:27 10° ENE visible
31 May - 01:27:50 10° WNW 01:31:08 89° SW 01:34:25 10° ESE visible
31 May - 03:05:07 10° W 03:07:14 16° SW 03:09:20 10° S visible
31 May - 19:45:51 10° SSW 19:48:51 33° SE 19:51:52 10° ENE daylight
31 May - 21:22:00 10° W 21:25:16 54° NNW 21:28:31 10° ENE daylight
31 May - 22:59:07 10° WNW 23:02:10 33° N 23:05:13 10° ENE visible
01 Jun - 00:35:46 10° WNW 00:39:02 61° NNE 00:42:18 10° ESE visible
01 Jun - 02:12:31 10° W 02:15:21 27° SW 02:18:10 10° SSE visible
01 Jun - 18:54:29 10° S 18:56:57 20° SE 18:59:26 10° E daylight
01 Jun - 20:29:50 10° WSW 20:33:08 78° NNW 20:36:26 10° ENE daylight
01 Jun - 22:06:52 10° WNW 22:09:56 34° N 22:13:00 10° ENE visible
01 Jun - 23:43:41 10° WNW 23:46:53 45° NNE 23:50:04 10° E visible
02 Jun - 01:20:14 10° WNW 01:23:25 45° SSW 01:26:34 10° SE visible
02 Jun - 18:03:55 10° SSE 18:05:06 11° SE 18:06:17 10° ESE daylight
02 Jun - 19:37:47 10° SW 19:41:03 67° SSE 19:44:20 10° ENE daylight
02 Jun - 21:14:35 10° W 21:17:43 38° N 21:20:51 10° ENE daylight
02 Jun - 22:51:34 10° WNW 22:54:41 37° N 22:57:47 10° E visible
03 Jun - 00:28:05 10° WNW 00:31:23 76° SSW 00:34:39 10° ESE visible
03 Jun - 02:05:46 10° WSW 02:07:23 13° SW 02:09:00 10° SSW visible
03 Jun - 18:45:55 10° SW 18:49:01 40° SE 18:52:09 10° ENE daylight
03 Jun - 20:22:17 10° W 20:25:30 48° NNW 20:28:43 10° ENE daylight
03 Jun - 21:59:23 10° WNW 22:02:26 34° N 22:05:29 10° ENE daylight
03 Jun - 23:35:58 10° WNW 23:39:16 71° NNE 23:42:33 10° ESE visible
04 Jun - 01:12:52 10° W 01:15:30 22° SW 01:18:07 10° SSE visible
04 Jun - 17:54:21 10° SSW 17:57:03 24° SE 17:59:47 10° E daylight
04 Jun - 19:30:02 10° WSW 19:33:19 67° NNW 19:36:38 10° ENE daylight
04 Jun - 21:07:07 10° WNW 21:10:10 33° N 21:13:13 10° ENE daylight
04 Jun - 22:43:52 10° WNW 22:47:05 50° NNE 22:50:19 10° E visible
05 Jun - 00:20:28 10° WNW 00:23:32 37° SW 00:26:36 10° SSE visible
05 Jun - 17:03:19 10° SSE 17:05:09 14° SE 17:06:59 10° E daylight
05 Jun - 18:37:53 10° WSW 18:41:11 80° SSE 18:44:30 10° ENE daylight
05 Jun - 20:14:48 10° WNW 20:17:54 36° N 20:21:00 10° ENE daylight
05 Jun - 21:51:43 10° WNW 21:54:51 39° NNE 21:58:00 10° E daylight
05 Jun - 23:28:13 10° WNW 23:31:30 63° SSW 23:34:45 10° SE visible
06 Jun - 01:06:41 10° WSW 01:07:24 11° SW 01:08:09 10° SW visible
06 Jun - 17:45:54 10° SW 17:49:06 48° SSE 17:52:18 10° ENE daylight
06 Jun - 19:22:28 10° W 19:25:38 44° NNW 19:28:50 10° ENE daylight
06 Jun - 20:59:31 10° WNW 21:02:35 34° N 21:05:39 10° ENE daylight
06 Jun - 22:36:03 10° WNW 22:39:22 82° NNE 22:42:40 10° ESE visible
